Weather History for CYXH - March, 2014

Change the Weather History Date:

Friday, March 7, 2014

  Actual Average Record
Temperature  
Mean Temperature 10 °F -  
Max Temperature 17 °F 44 °F 60 °F (2007)
Min Temperature 3 °F 22 °F -34 °F (2013)
Degree Days  
Heating Degree Days 55    
Moisture  
Dew Point 4 °F    
Average Humidity 83    
Maximum Humidity 92    
Minimum Humidity 68    
Precipitation  
Precipitation 0.00 in 0.02 in - ()
Sea Level Pressure  
Sea Level Pressure 30.24 in    
Wind  
Wind Speed 3 mph ()    
Max Wind Speed 7 mph    
Max Gust Speed -    
Visibility 9.9 miles    
Events Snow    
Averages and records for this station are not official NWS values.
T = Trace of Precipitation, MM = Missing Value Source: Averaged Metar Reports

Daily Weather History Graph

Daily Weather History Graph

Search for Another Location

Airport or City:

Trip Planner

Search our weather history database for the weather conditions in past years. The results will help you decide how hot, cold, wet, or windy it might be!

Date:

Astronomy

Mar. 07, 2014 Rise Set
Actual Time 6:53 AM MST 6:15 PM MST
Civil Twilight 6:21 AM MST 6:47 PM MST
Nautical Twilight 5:43 AM MST 7:24 PM MST
Astronomical Twilight 5:05 AM MST 8:02 PM MST
Moon 10:13 AM MST (3/7) 12:58 AM MST (3/7)
Length of Visible Light 12h 26m
Length of Day
11h 21m
Waxing Crescent, 42% of the Moon is Illuminated
Mar 7
Waxing Crescent
Mar 8
First Quarter
Mar 16
Full
Mar 23
Last Quarter
Mar 30
New

Hourly Weather History & Observations

Time (MST) Temp. Windchill Dew Point Humidity Pressure Visibility Wind Dir Wind Speed Gust Speed Precip Events Conditions
12:00 AM 5.0 °F -2.1 °F 1.4 °F 85% 30.24 in 9.0 mi South 3.5 mph - N/A Snow Light Snow
12:30 AM 5.0 °F -2.1 °F 1.4 °F 85% 30.24 in 5.0 mi South 3.5 mph - N/A Snow Light Snow
1:00 AM 5.0 °F - 3.2 °F 92% 30.23 in 4.0 mi Calm Calm - N/A Snow Light Snow
1:32 AM 6.8 °F - 3.2 °F 85% 30.23 in 6.0 mi SE 2.3 mph - N/A Snow Light Snow
2:00 AM 5.0 °F -2.1 °F 3.2 °F 92% 30.23 in 8.0 mi East 3.5 mph - N/A Snow Light Snow
2:29 AM 5.0 °F -2.1 °F 3.2 °F 92% 30.23 in 9.0 mi SE 3.5 mph - N/A   Overcast
3:00 AM 6.8 °F - 3.2 °F 85% 30.22 in 9.0 mi Variable 2.3 mph - N/A   Overcast
4:00 AM 5.0 °F -4.1 °F 1.4 °F 85% 30.20 in 9.0 mi East 4.6 mph - N/A   Overcast
5:00 AM 3.2 °F -7.8 °F 1.4 °F 92% 30.21 in 9.0 mi East 5.8 mph - N/A   Scattered Clouds
5:35 AM 3.2 °F -7.8 °F -0.4 °F 85% 30.21 in 9.0 mi ESE 5.8 mph - N/A   Overcast
6:00 AM 5.0 °F -5.6 °F 1.4 °F 85% 30.22 in 15.0 mi East 5.8 mph - N/A   Overcast
7:00 AM 5.0 °F -4.1 °F 1.4 °F 85% 30.21 in 15.0 mi NE 4.6 mph - N/A   Overcast
8:00 AM 5.0 °F -5.6 °F 1.4 °F 85% 30.21 in 15.0 mi East 5.8 mph - N/A   Overcast
9:00 AM 6.8 °F -2.0 °F 1.4 °F 79% 30.22 in 30.0 mi ENE 4.6 mph - N/A   Mostly Cloudy
10:00 AM 10.4 °F 4.0 °F 3.2 °F 73% 30.22 in 30.0 mi NNE 3.5 mph - N/A   Mostly Cloudy
11:00 AM 12.2 °F - 5.0 °F 73% 30.24 in 30.0 mi NNE 2.3 mph - N/A   Mostly Cloudy
12:00 PM 14.0 °F 6.5 °F 6.8 °F 73% 30.25 in 30.0 mi North 4.6 mph - N/A   Mostly Cloudy
1:00 PM 14.0 °F 3.9 °F 6.8 °F 73% 30.27 in 30.0 mi North 6.9 mph - N/A   Mostly Cloudy
2:00 PM 15.8 °F 8.6 °F 8.6 °F 73% 30.27 in 30.0 mi North 4.6 mph - N/A   Mostly Cloudy
3:00 PM 15.8 °F - 8.6 °F 73% 30.27 in 30.0 mi NW 2.3 mph - N/A   Mostly Cloudy
4:00 PM 17.6 °F 12.3 °F 8.6 °F 68% 30.27 in 30.0 mi SSE 3.5 mph - N/A   Partly Cloudy
5:00 PM 17.6 °F - 8.6 °F 68% 30.27 in 30.0 mi Variable 2.3 mph - N/A   Partly Cloudy
6:00 PM 14.0 °F - 8.6 °F 79% 30.26 in 30.0 mi Calm Calm - N/A   Partly Cloudy
7:00 PM 12.2 °F 4.3 °F 8.6 °F 85% 30.27 in 15.0 mi East 4.6 mph - N/A   Partly Cloudy
8:00 PM 6.8 °F - 5.0 °F 92% 30.27 in 15.0 mi SSW 2.3 mph - N/A   Clear
9:00 PM 6.8 °F -4.8 °F 3.2 °F 85% 30.23 in 9.0 mi SSE 6.9 mph - N/A   Clear
10:00 PM 5.0 °F -2.1 °F 3.2 °F 92% 30.22 in 9.0 mi SSW 3.5 mph - N/A   Clear
11:00 PM 6.8 °F -3.5 °F 5.0 °F 92% 30.19 in 9.0 mi East 5.8 mph - N/A   Clear